Darstellungsparameter: Aktuell verwendete Einstellungen:
Skalierung der Graphiken ... ?
xyx+y,   Skalierungsfaktor:      Skalierung: Modus: x, Faktor: 1
Darstellungszeitraum ... ?
Vom - - bis: - -   Zeitraum: 28.05.2022 - 28.05.2022
Min/Max/Avg-Anzeige ... ?
Zeige MMA aktuell
Zeige MMA Monat
Zeige MMA alles
Zeige --A aktuell
Zeige --A Monat
Zeige --A alles
Keine MMA-Anzeige
MMA:
Average (ber die Originaldaten)
MMA-Basis: 28.05.2022 - 28.05.2022
Quicknavigation für Darstellung... ?
Tage:      1T, 2T, 3T, 5T -1T -2T -3T -5T +1T +2T +3T +5T
Wochen: 1W, 2W, 3W -1W -2W -3W +1W +2W +3W
Monate: 1M, 3M, 6M -1M -3M -6M +1M +3M +6M
Jahre:    1J, 3J, 5J, 10J -1J -3J -5J -10J +1J +3J +5J +10J
Nutze für die Darstellung ... ?
Originaldaten oder Mittelwerte auf ...
Stundenbasis Tagesbasis Wochenbasis
Monatsbasis Jahresbasis      Datenbasis: Original-Daten
Darstellen als:
Statistik (Auto) Statistik J:M      Darstellung:

Der gewünschte Datumsbereich war nicht gültig/verfügbar und wurde korrigiert....
Das angegebene Enddatum (27.05.2030 23:59:59) liegt in der Zukunft.
Das angegebene Startdatum (14.05.2030 00:00:00) liegt in der Zukunft.


Zur Graphik,    zurück zur Übersicht aller Sensoren.
 
Tabellarische Datenbersicht: ?
 
Sensor: Nr:Datum:Temp:Abs-Feuchte:Windchill:Wind:
Aussen-T/F 1 28-05-2022 02:00:00 8.8 C 7.05 g/m*3 8.8 C 3.2 km/h
2 28-05-2022 02:05:00 8.7 C 7.09 g/m*3 8.7 C 4.8 km/h
3 28-05-2022 02:10:00 8.6 C 7.05 g/m*3 8.6 C 3.2 km/h
4 28-05-2022 02:15:00 8.4 C 7.04 g/m*3 8.4 C 3.2 km/h
5 28-05-2022 02:20:00 8.3 C 7 g/m*3 8.3 C 0 km/h
6 28-05-2022 02:25:00 8.3 C 7 g/m*3 8.3 C 1.6 km/h
7 28-05-2022 02:30:00 8.2 C 6.95 g/m*3 8.2 C 0 km/h
8 28-05-2022 02:35:00 8.1 C 6.91 g/m*3 8.1 C 0 km/h
9 28-05-2022 02:40:00 8 C 6.94 g/m*3 8 C 1.6 km/h
10 28-05-2022 02:45:00 7.9 C 6.9 g/m*3 7.9 C 0 km/h
11 28-05-2022 02:50:00 7.8 C 6.94 g/m*3 7.8 C 4.8 km/h
12 28-05-2022 02:55:00 7.8 C 6.94 g/m*3 7.8 C 1.6 km/h
13 28-05-2022 03:00:00 7.8 C 6.94 g/m*3 7.8 C 1.6 km/h
14 28-05-2022 03:05:00 7.8 C 6.94 g/m*3 7.8 C 4.8 km/h
15 28-05-2022 03:10:00 7.8 C 7.02 g/m*3 7.8 C 4.8 km/h
16 28-05-2022 03:15:00 7.8 C 7.02 g/m*3 7.8 C 4.8 km/h
17 28-05-2022 03:20:00 7.8 C 7.02 g/m*3 6.83 C 6.4 km/h
18 28-05-2022 03:25:00 7.8 C 7.1 g/m*3 7.8 C 3.2 km/h
19 28-05-2022 03:30:00 7.8 C 7.1 g/m*3 7.8 C 4.8 km/h
20 28-05-2022 03:35:00 7.9 C 7.15 g/m*3 7.9 C 3.2 km/h
21 28-05-2022 03:40:00 7.9 C 7.15 g/m*3 7.9 C 4.8 km/h
22 28-05-2022 03:45:00 7.9 C 7.15 g/m*3 6.94 C 6.4 km/h
23 28-05-2022 03:50:00 7.9 C 7.15 g/m*3 7.9 C 4.8 km/h
24 28-05-2022 03:55:00 7.9 C 7.06 g/m*3 6.94 C 6.4 km/h
25 28-05-2022 04:00:00 8 C 7.11 g/m*3 5.75 C 12.9 km/h
Sensor: Nr:Datum:Temp:Abs-Feuchte:Windchill:Wind:
Aussen-T/F 26 28-05-2022 04:05:00 8.1 C 7.16 g/m*3 5.87 C 12.9 km/h
27 28-05-2022 04:10:00 8.1 C 7.16 g/m*3 7.17 C 6.4 km/h
28 28-05-2022 04:15:00 8.1 C 7.16 g/m*3 6.42 C 9.7 km/h
29 28-05-2022 04:20:00 8.1 C 7.16 g/m*3 8.1 C 3.2 km/h
30 28-05-2022 04:25:00 8.1 C 7.16 g/m*3 8.1 C 3.2 km/h
31 28-05-2022 04:30:00 7.9 C 6.98 g/m*3 7.9 C 3.2 km/h
32 28-05-2022 04:35:00 7.8 C 7.02 g/m*3 7.8 C 3.2 km/h
33 28-05-2022 04:40:00 7.8 C 7.02 g/m*3 6.83 C 6.4 km/h
34 28-05-2022 04:45:00 7.8 C 7.1 g/m*3 7.8 C 4.8 km/h
35 28-05-2022 04:50:00 7.8 C 7.1 g/m*3 6.83 C 6.4 km/h
36 28-05-2022 04:55:00 7.8 C 7.1 g/m*3 7.8 C 4.8 km/h
37 28-05-2022 05:00:00 7.7 C 7.05 g/m*3 7.7 C 4.8 km/h
38 28-05-2022 05:05:00 7.7 C 7.05 g/m*3 7.7 C 3.2 km/h
39 28-05-2022 05:10:00 7.6 C 7.01 g/m*3 5.82 C 9.7 km/h
40 28-05-2022 05:15:00 7.5 C 7.04 g/m*3 7.5 C 1.6 km/h
41 28-05-2022 05:20:00 7.4 C 7 g/m*3 5.93 C 8.1 km/h
42 28-05-2022 05:25:00 7.4 C 7 g/m*3 6.37 C 6.4 km/h
43 28-05-2022 05:30:00 7.4 C 7 g/m*3 5.58 C 9.7 km/h
44 28-05-2022 05:35:00 7.4 C 7.08 g/m*3 5.58 C 9.7 km/h
45 28-05-2022 05:40:00 7.4 C 7.08 g/m*3 6.37 C 6.4 km/h
46 28-05-2022 05:45:00 7.3 C 7.03 g/m*3 7.3 C 1.6 km/h
47 28-05-2022 05:50:00 7.3 C 7.03 g/m*3 7.3 C 3.2 km/h
48 28-05-2022 05:55:00 7.2 C 6.99 g/m*3 7.2 C 3.2 km/h
49 28-05-2022 06:00:00 7.2 C 6.99 g/m*3 5.69 C 8.1 km/h
50 28-05-2022 06:05:00 7.2 C 6.99 g/m*3 6.13 C 6.4 km/h
Sensor: Nr:Datum:Temp:Abs-Feuchte:Windchill:Wind:
Aussen-T/F 51 28-05-2022 06:10:00 7.3 C 7.11 g/m*3 5.81 C 8.1 km/h
52 28-05-2022 06:15:00 7.5 C 7.2 g/m*3 5.7 C 9.7 km/h
53 28-05-2022 06:20:00 7.7 C 7.22 g/m*3 6.71 C 6.4 km/h
54 28-05-2022 06:25:00 7.8 C 7.26 g/m*3 7.8 C 3.2 km/h
55 28-05-2022 06:30:00 7.8 C 7.26 g/m*3 6.4 C 8.1 km/h
56 28-05-2022 06:35:00 7.9 C 7.31 g/m*3 6.94 C 6.4 km/h
57 28-05-2022 06:40:00 8.1 C 7.41 g/m*3 7.17 C 6.4 km/h
58 28-05-2022 06:45:00 8.2 C 7.37 g/m*3 7.29 C 6.4 km/h
59 28-05-2022 06:50:00 8.3 C 7.42 g/m*3 8.3 C 4.8 km/h
60 28-05-2022 06:55:00 8.4 C 7.47 g/m*3 7.52 C 6.4 km/h
61 28-05-2022 07:00:00 8.5 C 7.51 g/m*3 7.64 C 6.4 km/h
62 28-05-2022 07:05:00 8.6 C 7.48 g/m*3 7.75 C 6.4 km/h
63 28-05-2022 07:10:00 8.7 C 7.52 g/m*3 8.7 C 4.8 km/h
64 28-05-2022 07:15:00 8.9 C 7.62 g/m*3 8.9 C 4.8 km/h
65 28-05-2022 07:20:00 9.1 C 7.63 g/m*3 9.1 C 4.8 km/h
66 28-05-2022 07:25:00 9.2 C 7.59 g/m*3 9.2 C 4.8 km/h
67 28-05-2022 07:30:00 9.4 C 7.69 g/m*3 8.68 C 6.4 km/h
68 28-05-2022 07:35:00 9.6 C 7.69 g/m*3 8.91 C 6.4 km/h
69 28-05-2022 07:40:00 9.8 C 7.7 g/m*3 9.8 C 4.8 km/h
70 28-05-2022 07:45:00 10 C 7.8 g/m*3 10 C 4.8 km/h
71 28-05-2022 07:50:00 10.1 C 7.75 g/m*3 10.1 C 3.2 km/h
72 28-05-2022 07:55:00 10.2 C 7.71 g/m*3 10.2 C 4.8 km/h
73 28-05-2022 08:00:00 10.3 C 7.76 g/m*3 10.3 C 4.8 km/h
74 28-05-2022 08:05:00 10.4 C 7.71 g/m*3 10.4 C 4.8 km/h
75 28-05-2022 08:10:00 10.5 C 7.86 g/m*3 9.57 C 8.1 km/h
Sensor: Nr:Datum:Temp:Abs-Feuchte:Windchill:Wind:
Aussen-T/F 76 28-05-2022 08:15:00 10.7 C 7.86 g/m*3 9.81 C 8.1 km/h
77 28-05-2022 08:20:00 10.8 C 8.01 g/m*3 10.29 C 6.4 km/h
78 28-05-2022 08:25:00 10.9 C 8.06 g/m*3 10.9 C 4.8 km/h
79 28-05-2022 08:30:00 11.1 C 8.06 g/m*3 11.1 C 9.7 km/h
80 28-05-2022 08:35:00 11.5 C 8.37 g/m*3 11.5 C 9.7 km/h
81 28-05-2022 08:40:00 11.8 C 8.42 g/m*3 11.8 C 11.3 km/h
82 28-05-2022 08:45:00 12.2 C 8.52 g/m*3 12.2 C 6.4 km/h
83 28-05-2022 08:50:00 12.4 C 8.52 g/m*3 12.4 C 6.4 km/h
84 28-05-2022 08:55:00 12.6 C 8.52 g/m*3 12.6 C 6.4 km/h
85 28-05-2022 09:00:00 12.7 C 8.57 g/m*3 12.7 C 8.1 km/h
86 28-05-2022 09:05:00 12.7 C 8.35 g/m*3 12.7 C 3.2 km/h
87 28-05-2022 09:10:00 12.8 C 8.51 g/m*3 12.8 C 4.8 km/h
88 28-05-2022 09:15:00 13.1 C 8.56 g/m*3 13.1 C 6.4 km/h
89 28-05-2022 09:20:00 13.3 C 8.66 g/m*3 13.3 C 6.4 km/h
90 28-05-2022 09:25:00 13.5 C 8.66 g/m*3 13.5 C 11.3 km/h
91 28-05-2022 09:30:00 13.6 C 8.71 g/m*3 13.6 C 8.1 km/h
92 28-05-2022 09:35:00 13.8 C 8.82 g/m*3 13.8 C 8.1 km/h
93 28-05-2022 09:40:00 13.8 C 8.7 g/m*3 13.8 C 9.7 km/h
94 28-05-2022 09:45:00 13.9 C 8.75 g/m*3 13.9 C 6.4 km/h
95 28-05-2022 09:50:00 14.2 C 8.91 g/m*3 14.2 C 12.9 km/h
96 28-05-2022 09:55:00 14.3 C 8.97 g/m*3 14.3 C 8.1 km/h
97 28-05-2022 10:00:00 14.3 C 8.6 g/m*3 14.3 C 16.1 km/h
98 28-05-2022 10:05:00 14.3 C 8.6 g/m*3 14.3 C 12.9 km/h
99 28-05-2022 10:10:00 14.3 C 8.6 g/m*3 14.3 C 9.7 km/h
100 28-05-2022 10:15:00 14.3 C 8.6 g/m*3 14.3 C 9.7 km/h
Sensor: Nr:Datum:Temp:Abs-Feuchte:Windchill:Wind:
Aussen-T/F 101 28-05-2022 10:20:00 14.3 C 8.48 g/m*3 14.3 C 11.3 km/h
102 28-05-2022 10:25:00 14.6 C 8.51 g/m*3 14.6 C 11.3 km/h
103 28-05-2022 10:30:00 14.6 C 8.13 g/m*3 14.6 C 8.1 km/h
104 28-05-2022 10:35:00 14.6 C 8.26 g/m*3 14.6 C 11.3 km/h
105 28-05-2022 10:40:00 14.7 C 8.31 g/m*3 14.7 C 12.9 km/h
106 28-05-2022 10:45:00 15 C 8.59 g/m*3 15 C 11.3 km/h
107 28-05-2022 10:50:00 15.2 C 8.44 g/m*3 15.2 C 9.7 km/h
108 28-05-2022 10:55:00 15.4 C 8.15 g/m*3 15.4 C 14.5 km/h
109 28-05-2022 11:00:00 15.4 C 8.01 g/m*3 15.4 C 16.1 km/h
110 28-05-2022 11:05:00 15.2 C 8.05 g/m*3 15.2 C 11.3 km/h
111 28-05-2022 11:10:00 15.3 C 8.36 g/m*3 15.3 C 17.7 km/h
112 28-05-2022 11:15:00 15.7 C 8.3 g/m*3 15.7 C 17.7 km/h
113 28-05-2022 11:20:00 15.8 C 8.21 g/m*3 15.8 C 16.1 km/h
114 28-05-2022 11:25:00 15.9 C 8.13 g/m*3 15.9 C 8.1 km/h
115 28-05-2022 11:30:00 16 C 8.17 g/m*3 16 C 12.9 km/h
116 28-05-2022 11:35:00 16.2 C 8.14 g/m*3 16.2 C 9.7 km/h
117 28-05-2022 11:40:00 16.2 C 7.86 g/m*3 16.2 C 14.5 km/h
118 28-05-2022 11:45:00 16.1 C 8.22 g/m*3 16.1 C 17.7 km/h
119 28-05-2022 11:50:00 16.4 C 7.96 g/m*3 16.4 C 16.1 km/h
120 28-05-2022 11:55:00 16.6 C 8.19 g/m*3 16.6 C 12.9 km/h
121 28-05-2022 12:00:00 16.9 C 7.91 g/m*3 16.9 C 12.9 km/h
122 28-05-2022 12:05:00 16.8 C 7.72 g/m*3 16.8 C 16.1 km/h
123 28-05-2022 12:10:00 16.5 C 7.86 g/m*3 16.5 C 16.1 km/h
124 28-05-2022 12:15:00 16.1 C 8.09 g/m*3 16.1 C 14.5 km/h
125 28-05-2022 12:20:00 15.8 C 8.08 g/m*3 15.8 C 12.9 km/h
Sensor: Nr:Datum:Temp:Abs-Feuchte:Windchill:Wind:
Aussen-T/F 126 28-05-2022 12:25:00 15.9 C 7.99 g/m*3 15.9 C 11.3 km/h
127 28-05-2022 12:30:00 16.2 C 8.14 g/m*3 16.2 C 8.1 km/h
128 28-05-2022 12:35:00 16.6 C 7.91 g/m*3 16.6 C 14.5 km/h
129 28-05-2022 12:40:00 16.8 C 7.43 g/m*3 16.8 C 16.1 km/h
130 28-05-2022 12:45:00 16.8 C 7.58 g/m*3 16.8 C 19.3 km/h
131 28-05-2022 12:50:00 16.8 C 7.58 g/m*3 16.8 C 17.7 km/h
132 28-05-2022 12:55:00 16.4 C 7.54 g/m*3 16.4 C 17.7 km/h
133 28-05-2022 13:00:00 16 C 7.63 g/m*3 16 C 12.9 km/h
134 28-05-2022 13:05:00 15.9 C 7.45 g/m*3 15.9 C 14.5 km/h
135 28-05-2022 13:10:00 16.4 C 7.54 g/m*3 16.4 C 25.7 km/h
136 28-05-2022 13:15:00 16.8 C 6.86 g/m*3 16.8 C 25.7 km/h
137 28-05-2022 13:20:00 17.1 C 7.13 g/m*3 17.1 C 14.5 km/h
138 28-05-2022 13:25:00 17.3 C 7.22 g/m*3 17.3 C 14.5 km/h
139 28-05-2022 13:30:00 17.4 C 7.11 g/m*3 17.4 C 19.3 km/h
140 28-05-2022 13:35:00 17.4 C 7.41 g/m*3 17.4 C 9.7 km/h
141 28-05-2022 13:40:00 17.7 C 7.24 g/m*3 17.7 C 16.1 km/h
142 28-05-2022 13:45:00 18 C 7.22 g/m*3 18 C 22.5 km/h
143 28-05-2022 13:50:00 17.9 C 7.02 g/m*3 17.9 C 25.7 km/h
144 28-05-2022 13:55:00 18.1 C 6.95 g/m*3 18.1 C 16.1 km/h
145 28-05-2022 14:00:00 17.7 C 6.94 g/m*3 17.7 C 14.5 km/h
146 28-05-2022 14:05:00 17.8 C 7.29 g/m*3 17.8 C 9.7 km/h
147 28-05-2022 14:10:00 17.8 C 6.68 g/m*3 17.8 C 16.1 km/h
148 28-05-2022 14:15:00 17.8 C 7.13 g/m*3 17.8 C 14.5 km/h
149 28-05-2022 14:20:00 17.9 C 6.87 g/m*3 17.9 C 14.5 km/h
150 28-05-2022 14:25:00 18 C 6.76 g/m*3 18 C 16.1 km/h
Sensor: Nr:Datum:Temp:Abs-Feuchte:Windchill:Wind:
Aussen-T/F 151 28-05-2022 14:30:00 18.1 C 6.95 g/m*3 18.1 C 9.7 km/h
152 28-05-2022 14:35:00 17.7 C 6.79 g/m*3 17.7 C 14.5 km/h
153 28-05-2022 14:40:00 17.6 C 6.9 g/m*3 17.6 C 17.7 km/h
154 28-05-2022 14:45:00 17.9 C 7.02 g/m*3 17.9 C 12.9 km/h
155 28-05-2022 14:50:00 18.6 C 7.16 g/m*3 18.6 C 9.7 km/h
156 28-05-2022 14:55:00 18.4 C 6.92 g/m*3 18.4 C 19.3 km/h
157 28-05-2022 15:00:00 18.1 C 6.33 g/m*3 18.1 C 19.3 km/h
158 28-05-2022 15:05:00 17.8 C 6.37 g/m*3 17.8 C 16.1 km/h
159 28-05-2022 15:10:00 17.9 C 6.57 g/m*3 17.9 C 11.3 km/h
160 28-05-2022 15:15:00 18.3 C 6.88 g/m*3 18.3 C 17.7 km/h
161 28-05-2022 15:20:00 18.7 C 6.56 g/m*3 18.7 C 17.7 km/h
162 28-05-2022 15:25:00 18.7 C 6.4 g/m*3 18.7 C 14.5 km/h
163 28-05-2022 15:30:00 18.9 C 6.64 g/m*3 18.9 C 8.1 km/h
164 28-05-2022 15:35:00 18.9 C 6.8 g/m*3 18.9 C 24.1 km/h
165 28-05-2022 15:40:00 18.9 C 6.64 g/m*3 18.9 C 17.7 km/h
166 28-05-2022 15:45:00 18.7 C 6.24 g/m*3 18.7 C 12.9 km/h
167 28-05-2022 15:50:00 18.9 C 6.32 g/m*3 18.9 C 9.7 km/h
168 28-05-2022 15:55:00 19.2 C 6.6 g/m*3 19.2 C 12.9 km/h
169 28-05-2022 16:00:00 19.2 C 6.27 g/m*3 19.2 C 16.1 km/h
170 28-05-2022 16:05:00 18.9 C 6.32 g/m*3 18.9 C 14.5 km/h
171 28-05-2022 16:10:00 19.1 C 6.39 g/m*3 19.1 C 12.9 km/h
172 28-05-2022 16:15:00 19.4 C 6.17 g/m*3 19.4 C 19.3 km/h
173 28-05-2022 16:20:00 19.4 C 6.17 g/m*3 19.4 C 19.3 km/h
174 28-05-2022 16:25:00 19.4 C 6.17 g/m*3 19.4 C 17.7 km/h
175 28-05-2022 16:30:00 19.3 C 6.3 g/m*3 19.3 C 16.1 km/h
Sensor: Nr:Datum:Temp:Abs-Feuchte:Windchill:Wind:
Aussen-T/F 176 28-05-2022 16:35:00 19.1 C 6.23 g/m*3 19.1 C 19.3 km/h
177 28-05-2022 16:40:00 18.9 C 6.16 g/m*3 18.9 C 19.3 km/h
178 28-05-2022 16:45:00 19 C 6.19 g/m*3 19 C 16.1 km/h
179 28-05-2022 16:50:00 18.8 C 5.96 g/m*3 18.8 C 20.9 km/h
180 28-05-2022 16:55:00 18.8 C 6.12 g/m*3 18.8 C 16.1 km/h
181 28-05-2022 17:00:00 19 C 6.19 g/m*3 19 C 16.1 km/h
182 28-05-2022 17:05:00 19.3 C 5.81 g/m*3 19.3 C 19.3 km/h
183 28-05-2022 17:10:00 19.3 C 5.97 g/m*3 19.3 C 11.3 km/h
184 28-05-2022 17:15:00 19.4 C 6.01 g/m*3 19.4 C 16.1 km/h
185 28-05-2022 17:20:00 19.2 C 6.27 g/m*3 19.2 C 19.3 km/h
186 28-05-2022 17:25:00 19.2 C 6.27 g/m*3 19.2 C 12.9 km/h
187 28-05-2022 17:30:00 19.4 C 6.67 g/m*3 19.4 C 11.3 km/h
188 28-05-2022 17:35:00 19.5 C 6.21 g/m*3 19.5 C 17.7 km/h
189 28-05-2022 17:40:00 19.4 C 6.51 g/m*3 19.4 C 17.7 km/h
190 28-05-2022 17:45:00 19.7 C 6.11 g/m*3 19.7 C 16.1 km/h
191 28-05-2022 17:50:00 19.8 C 6.32 g/m*3 19.8 C 8.1 km/h
192 28-05-2022 17:55:00 19.9 C 6.7 g/m*3 19.9 C 19.3 km/h
193 28-05-2022 18:00:00 19.8 C 6.49 g/m*3 19.8 C 20.9 km/h
194 28-05-2022 18:05:00 19.3 C 6.3 g/m*3 19.3 C 16.1 km/h
195 28-05-2022 18:10:00 19.2 C 6.6 g/m*3 19.2 C 16.1 km/h
196 28-05-2022 18:15:00 19.1 C 6.39 g/m*3 19.1 C 16.1 km/h
197 28-05-2022 18:20:00 19.1 C 6.56 g/m*3 19.1 C 12.9 km/h
198 28-05-2022 18:25:00 19.1 C 6.23 g/m*3 19.1 C 14.5 km/h
199 28-05-2022 18:30:00 18.9 C 6.64 g/m*3 18.9 C 14.5 km/h
200 28-05-2022 18:35:00 18.8 C 6.28 g/m*3 18.8 C 14.5 km/h
Sensor: Nr:Datum:Temp:Abs-Feuchte:Windchill:Wind:
Aussen-T/F 201 28-05-2022 18:40:00 18.5 C 5.85 g/m*3 18.5 C 17.7 km/h
202 28-05-2022 18:45:00 18.2 C 5.91 g/m*3 18.2 C 14.5 km/h
203 28-05-2022 18:50:00 18.2 C 6.06 g/m*3 18.2 C 14.5 km/h
204 28-05-2022 18:55:00 18.3 C 6.1 g/m*3 18.3 C 9.7 km/h
205 28-05-2022 19:00:00 18.3 C 6.1 g/m*3 18.3 C 12.9 km/h
206 28-05-2022 19:05:00 18.2 C 6.22 g/m*3 18.2 C 17.7 km/h
207 28-05-2022 19:10:00 18.1 C 6.33 g/m*3 18.1 C 6.4 km/h
208 28-05-2022 19:15:00 17.9 C 6.26 g/m*3 17.9 C 17.7 km/h
209 28-05-2022 19:20:00 17.6 C 6.3 g/m*3 17.6 C 14.5 km/h
210 28-05-2022 19:25:00 17.4 C 6.08 g/m*3 17.4 C 11.3 km/h
211 28-05-2022 19:30:00 17.4 C 6.37 g/m*3 17.4 C 12.9 km/h
212 28-05-2022 19:35:00 17.4 C 6.37 g/m*3 17.4 C 14.5 km/h
213 28-05-2022 19:40:00 17.3 C 6.33 g/m*3 17.3 C 11.3 km/h
214 28-05-2022 19:45:00 17.2 C 6.15 g/m*3 17.2 C 11.3 km/h
215 28-05-2022 19:50:00 17.2 C 6.3 g/m*3 17.2 C 12.9 km/h
216 28-05-2022 19:55:00 17.1 C 6.26 g/m*3 17.1 C 12.9 km/h
217 28-05-2022 20:00:00 16.9 C 6.33 g/m*3 16.9 C 11.3 km/h

Legende:
   Min
   Max


Maximal/Minimal-Werte vom 28.05.2022 - 28.05.2022

Sensor Min Max Avg
Temp
(Aussen-T/F)
7.2 °C
28-05-2022  05:55:00
19.9 °C
28-05-2022  17:55:00
13.85 °C
Abs-Feuchte
(Aussen-T/F)
5.81 g/m*3
28-05-2022  17:05:00
8.97 g/m*3
28-05-2022  09:55:00
7.18 g/m*3
Windchill
(Aussen-T/F)
5.58 C
28-05-2022  05:30:00
19.9 C
28-05-2022  17:55:00
13.61 C

Die Daten stammen von einer Davis Vantage Pro 2 Wetter-Station und werden unter Linux mit der Software wview2wettercgi und aufbereitet. Alle Angaben erfolgen ohne Gewähr für ihre Vollständigkeit oder Richtigkeit.
Kontakt: Rainer Krienke krienke@uni-koblenz.de . Meine Webseiten an der Uni Koblenz oder privat.
Version: $Revision: 0.78 $